AAL489 KTVC-KFLL

Flight info

Callsign AAL489
Flight time N/A
Altitude 39000
Route VIO SJAAY VOSTK/N0452F400 Q118 KAILL/N0452F390 Q118 THRSR Q79 ZPLEN TEEKY4
Aircraft A333/H-SDE3GHIJ2J3J5M1RVWXY/LB2D1

Departure

Time 2026-04-22 19:33
Airport Cherry Capital Airport (KTVC)

Arrival

Time N/A
Airport Fort Lauderdale Hollywood International Airport (KFLL)
Time Latitude Longitude Altitude Speed Heading
2026-04-22 19:18 44.74449 -85.58551 636 ft 0 kts 91°
2026-04-22 19:20 44.74449 -85.58552 636 ft 0 kts 91°
2026-04-22 19:27 44.74449 -85.58549 630 ft 3 kts 95°
2026-04-22 19:27 44.74442 -85.58537 630 ft 0 kts 135°
2026-04-22 19:28 44.74437 -85.58536 640 ft 1 kts 163°
2026-04-22 19:28 44.74427 -85.58541 642 ft 4 kts 194°
2026-04-22 19:28 44.74363 -85.58564 639 ft 15 kts 191°
2026-04-22 19:28 44.74282 -85.58486 633 ft 18 kts 129°
2026-04-22 19:29 44.74230 -85.58378 641 ft 3 kts 128°
2026-04-22 19:29 44.74210 -85.58299 639 ft 14 kts 98°
2026-04-22 19:29 44.74200 -85.58118 631 ft 23 kts 92°
2026-04-22 19:29 44.74187 -85.57849 635 ft 32 kts 94°
2026-04-22 19:30 44.74176 -85.57628 636 ft 37 kts 94°
2026-04-22 19:30 44.74153 -85.57144 639 ft 36 kts 94°
2026-04-22 19:30 44.74139 -85.56809 637 ft 33 kts 93°
2026-04-22 19:30 44.74125 -85.56500 636 ft 28 kts 95°
2026-04-22 19:31 44.74086 -85.56406 636 ft 6 kts 162°
2026-04-22 19:31 44.74035 -85.56404 631 ft 12 kts 188°
2026-04-22 19:31 44.74002 -85.56505 629 ft 15 kts 268°
2026-04-22 19:31 44.74004 -85.56592 633 ft 0 kts 274°
2026-04-22 19:32 44.74013 -85.56773 632 ft 46 kts 274°
2026-04-22 19:32 44.74046 -85.57472 635 ft 97 kts 274°
2026-04-22 19:33 44.74099 -85.58637 642 ft 141 kts 274°
2026-04-22 19:33 44.74162 -85.59985 1099 ft 121 kts 276°
2026-04-22 19:33 44.74149 -85.61165 1002 ft 137 kts 272°
2026-04-22 19:33 44.74115 -85.62561 1282 ft 128 kts 271°
2026-04-22 19:34 44.74033 -85.63749 1571 ft 132 kts 268°
2026-04-22 19:34 44.73958 -85.65190 1591 ft 163 kts 270°
2026-04-22 19:34 44.73914 -85.66874 1955 ft 180 kts 271°
2026-04-22 19:34 44.73897 -85.68692 2409 ft 193 kts 272°
2026-04-22 19:35 44.73900 -85.70639 2847 ft 207 kts 271°
2026-04-22 19:35 44.73905 -85.72758 3300 ft 226 kts 271°
2026-04-22 19:35 44.73910 -85.74260 3604 ft 238 kts 271°
2026-04-22 19:35 44.73911 -85.77491 4373 ft 255 kts 272°
2026-04-22 19:36 44.73916 -85.80031 5036 ft 264 kts 272°
2026-04-22 19:36 44.73933 -85.82654 5755 ft 272 kts 273°
2026-04-22 19:36 44.73955 -85.85306 6498 ft 277 kts 274°
2026-04-22 19:36 44.73983 -85.88039 7233 ft 281 kts 274°
2026-04-22 19:37 44.74013 -85.90804 8006 ft 284 kts 274°
2026-04-22 19:37 44.74043 -85.93590 8781 ft 285 kts 274°
2026-04-22 19:37 44.74074 -85.96386 9540 ft 287 kts 275°
2026-04-22 19:37 44.74060 -85.99194 10295 ft 288 kts 269°
2026-04-22 19:38 44.73653 -86.01998 10922 ft 297 kts 253°
2026-04-22 19:38 44.72611 -86.04531 11592 ft 308 kts 233°
2026-04-22 19:38 44.70854 -86.06397 11938 ft 332 kts 207°
2026-04-22 19:38 44.68548 -86.07127 12007 ft 360 kts 185°
2026-04-22 19:39 44.65955 -86.06973 12003 ft 386 kts 174°
2026-04-22 19:39 44.63226 -86.06305 11991 ft 408 kts 169°
2026-04-22 19:39 44.60513 -86.05443 11991 ft 391 kts 168°
2026-04-22 19:39 44.57929 -86.04589 12004 ft 379 kts 168°
2026-04-22 19:40 44.55308 -86.03775 11999 ft 393 kts 169°
2026-04-22 19:40 44.52599 -86.03010 11988 ft 400 kts 170°
2026-04-22 19:40 44.49854 -86.02297 11989 ft 401 kts 171°
2026-04-22 19:40 44.47115 -86.01625 12013 ft 401 kts 172°
2026-04-22 19:41 44.44377 -86.00976 12162 ft 408 kts 172°
2026-04-22 19:41 44.41561 -86.00316 12522 ft 412 kts 172°
2026-04-22 19:41 44.38730 -85.99654 12955 ft 414 kts 172°
2026-04-22 19:41 44.35877 -85.98986 13351 ft 417 kts 172°
2026-04-22 19:42 44.33013 -85.98311 13794 ft 418 kts 172°
2026-04-22 19:42 44.30129 -85.97629 14181 ft 420 kts 172°
2026-04-22 19:42 44.27243 -85.96947 14554 ft 422 kts 172°
2026-04-22 19:42 44.24341 -85.96260 14931 ft 424 kts 172°
2026-04-22 19:43 44.18490 -85.94878 15656 ft 428 kts 172°
2026-04-22 19:43 44.15581 -85.94191 16016 ft 430 kts 172°
2026-04-22 19:43 44.12631 -85.93496 16431 ft 430 kts 172°
2026-04-22 19:44 44.09672 -85.92799 16783 ft 433 kts 172°
2026-04-22 19:44 44.06694 -85.92098 17107 ft 435 kts 172°
2026-04-22 19:44 44.03696 -85.91394 17433 ft 438 kts 172°
2026-04-22 19:44 44.00693 -85.90690 17777 ft 440 kts 172°
2026-04-22 19:45 43.97668 -85.89982 18106 ft 442 kts 172°
2026-04-22 19:45 43.94631 -85.89271 18412 ft 444 kts 172°
2026-04-22 19:45 43.91584 -85.88558 18703 ft 445 kts 172°
2026-04-22 19:45 43.88559 -85.87851 18949 ft 448 kts 172°
2026-04-22 19:46 43.85471 -85.87131 19209 ft 451 kts 172°
2026-04-22 19:46 43.82372 -85.86409 19465 ft 453 kts 172°
2026-04-22 19:46 43.79256 -85.85683 19723 ft 455 kts 172°
2026-04-22 19:46 43.76122 -85.84955 19975 ft 458 kts 172°
2026-04-22 19:47 43.72983 -85.84226 20230 ft 460 kts 172°
2026-04-22 19:47 43.69815 -85.83490 20484 ft 462 kts 172°
2026-04-22 19:47 43.67838 -85.83032 20634 ft 464 kts 172°
2026-04-22 19:47 43.63608 -85.82051 20959 ft 467 kts 172°
2026-04-22 19:48 43.60401 -85.81309 21197 ft 469 kts 172°
2026-04-22 19:48 43.57174 -85.80563 21428 ft 471 kts 172°
2026-04-22 19:48 43.53936 -85.79815 21663 ft 473 kts 172°
2026-04-22 19:48 43.50675 -85.79063 21887 ft 476 kts 172°
2026-04-22 19:49 43.47403 -85.78309 22126 ft 478 kts 172°
2026-04-22 19:49 43.44119 -85.77554 22360 ft 480 kts 172°
2026-04-22 19:49 43.40812 -85.76794 22589 ft 482 kts 172°
2026-04-22 19:49 43.37497 -85.76032 22818 ft 484 kts 172°
2026-04-22 19:50 43.34210 -85.75278 23027 ft 487 kts 172°
2026-04-22 19:50 43.30854 -85.74509 23217 ft 490 kts 172°
2026-04-22 19:50 43.27489 -85.73738 23464 ft 492 kts 172°
2026-04-22 19:50 43.24109 -85.72965 23667 ft 494 kts 172°
2026-04-22 19:51 43.20710 -85.72189 23884 ft 495 kts 172°
2026-04-22 19:51 43.17308 -85.71413 24095 ft 497 kts 172°
2026-04-22 19:51 43.13894 -85.70635 24269 ft 498 kts 172°
2026-04-22 19:51 43.10472 -85.69856 24458 ft 499 kts 172°
2026-04-22 19:52 43.07042 -85.69077 24655 ft 501 kts 172°
2026-04-22 19:52 43.03646 -85.68306 24826 ft 502 kts 172°
2026-04-22 19:52 43.00193 -85.67523 25001 ft 504 kts 172°
2026-04-22 19:52 42.96733 -85.66739 25174 ft 505 kts 172°
2026-04-22 19:53 42.93259 -85.65953 25362 ft 506 kts 172°
2026-04-22 19:53 42.89780 -85.65167 25576 ft 508 kts 172°
2026-04-22 19:53 42.87470 -85.64646 25795 ft 509 kts 172°
2026-04-22 19:53 42.82786 -85.63590 26134 ft 512 kts 172°
2026-04-22 19:54 42.79315 -85.62808 26303 ft 513 kts 172°
2026-04-22 19:54 42.75791 -85.62015 26461 ft 514 kts 172°
2026-04-22 19:54 42.72256 -85.61220 26643 ft 515 kts 172°
2026-04-22 19:54 42.68708 -85.60424 26811 ft 517 kts 172°
2026-04-22 19:55 42.65160 -85.59628 26987 ft 518 kts 172°
2026-04-22 19:55 42.62805 -85.59100 27089 ft 519 kts 172°
2026-04-22 19:55 42.59235 -85.58301 27239 ft 520 kts 172°
2026-04-22 19:55 42.55661 -85.57502 27409 ft 521 kts 172°
2026-04-22 19:56 42.52084 -85.56703 27547 ft 522 kts 172°
2026-04-22 19:56 42.47328 -85.55643 27795 ft 523 kts 172°
2026-04-22 19:56 42.43732 -85.54842 27942 ft 525 kts 173°
2026-04-22 19:56 42.41301 -85.54301 28048 ft 525 kts 173°
2026-04-22 19:57 42.36516 -85.53238 28241 ft 527 kts 173°
2026-04-22 19:57 42.34117 -85.52706 28343 ft 527 kts 173°
2026-04-22 19:57 42.30494 -85.51903 28485 ft 528 kts 173°
2026-04-22 19:57 42.26869 -85.51100 28666 ft 529 kts 173°
2026-04-22 19:58 42.23235 -85.50296 28801 ft 530 kts 173°
2026-04-22 19:58 42.18405 -85.49229 28969 ft 531 kts 173°
2026-04-22 19:58 42.12285 -85.47879 29205 ft 533 kts 173°
2026-04-22 19:59 42.08624 -85.47073 29343 ft 533 kts 173°
2026-04-22 20:00 41.86584 -85.42241 30109 ft 539 kts 173°
2026-04-22 20:01 41.79177 -85.40624 30363 ft 539 kts 173°
2026-04-22 20:01 41.75474 -85.39817 30531 ft 538 kts 173°
2026-04-22 20:01 41.71828 -85.39023 30693 ft 538 kts 173°
2026-04-22 20:01 41.68133 -85.38220 30825 ft 538 kts 173°
2026-04-22 20:02 41.64444 -85.37419 30993 ft 537 kts 173°
2026-04-22 20:02 41.60749 -85.36617 31122 ft 537 kts 173°
2026-04-22 20:02 41.57063 -85.35819 31265 ft 537 kts 173°
2026-04-22 20:02 41.53377 -85.35021 31412 ft 536 kts 173°
2026-04-22 20:03 41.49696 -85.34225 31551 ft 536 kts 173°
2026-04-22 20:03 41.46014 -85.33431 31689 ft 536 kts 173°
2026-04-22 20:03 41.42337 -85.32638 31816 ft 536 kts 173°
2026-04-22 20:03 41.38707 -85.31856 31954 ft 535 kts 173°
2026-04-22 20:04 41.35027 -85.31065 32082 ft 535 kts 173°
2026-04-22 20:04 41.31354 -85.30276 32215 ft 535 kts 173°
2026-04-22 20:04 41.27685 -85.29488 32363 ft 534 kts 173°
2026-04-22 20:04 41.24015 -85.28701 32484 ft 534 kts 173°
2026-04-22 20:05 41.20335 -85.27914 32531 ft 536 kts 173°
2026-04-22 20:05 41.16659 -85.27128 32646 ft 535 kts 173°
2026-04-22 20:05 41.12979 -85.26341 32803 ft 535 kts 173°
2026-04-22 20:05 41.09308 -85.25557 32929 ft 534 kts 173°
2026-04-22 20:06 41.05686 -85.24785 33010 ft 534 kts 173°
2026-04-22 20:06 41.02022 -85.24005 33120 ft 533 kts 173°
2026-04-22 20:06 40.98366 -85.23227 33304 ft 531 kts 173°
2026-04-22 20:06 40.94721 -85.22452 33423 ft 531 kts 173°
2026-04-22 20:07 40.91076 -85.21679 33511 ft 531 kts 173°
2026-04-22 20:07 40.87432 -85.20906 33633 ft 530 kts 173°
2026-04-22 20:07 40.83788 -85.20135 33714 ft 530 kts 173°
2026-04-22 20:07 40.80148 -85.19365 33815 ft 529 kts 173°
2026-04-22 20:08 40.76522 -85.18599 33986 ft 527 kts 173°
2026-04-22 20:08 40.69333 -85.17082 34148 ft 527 kts 173°
2026-04-22 20:09 40.62095 -85.15560 34287 ft 527 kts 173°
2026-04-22 20:09 40.54853 -85.14039 34425 ft 527 kts 173°
2026-04-22 20:10 40.47612 -85.12522 34567 ft 527 kts 173°
2026-04-22 20:10 40.40426 -85.11019 34701 ft 527 kts 173°
2026-04-22 20:11 40.33192 -85.09510 34866 ft 525 kts 173°
2026-04-22 20:11 40.25973 -85.08007 34972 ft 525 kts 173°
2026-04-22 20:12 40.18748 -85.06506 35091 ft 525 kts 173°
2026-04-22 20:12 40.11533 -85.05011 35226 ft 525 kts 173°
2026-04-22 20:13 40.04361 -85.03527 35253 ft 527 kts 173°
2026-04-22 20:13 39.97113 -85.02032 35249 ft 528 kts 173°
2026-04-22 20:14 39.89864 -85.00538 35205 ft 526 kts 173°
2026-04-22 20:14 39.82644 -84.99054 35275 ft 525 kts 173°
2026-04-22 20:15 39.75436 -84.97576 35415 ft 524 kts 173°
2026-04-22 20:15 39.68280 -84.96112 35517 ft 523 kts 173°
2026-04-22 20:15 39.64691 -84.95378 35631 ft 522 kts 173°
2026-04-22 20:16 39.61107 -84.94647 35675 ft 522 kts 173°
2026-04-22 20:16 39.53928 -84.93184 35760 ft 522 kts 173°
2026-04-22 20:17 39.46753 -84.91724 35843 ft 522 kts 173°
2026-04-22 20:17 39.39628 -84.90279 35973 ft 521 kts 173°
2026-04-22 20:18 39.32459 -84.88827 36026 ft 522 kts 173°
2026-04-22 20:18 39.25286 -84.87377 36101 ft 522 kts 173°
2026-04-22 20:19 39.18130 -84.85934 36234 ft 521 kts 172°
2026-04-22 20:19 39.11011 -84.84501 36289 ft 521 kts 173°
2026-04-22 20:19 39.07435 -84.83782 36432 ft 518 kts 173°
2026-04-22 20:20 39.03910 -84.83073 36905 ft 507 kts 173°
2026-04-22 20:20 39.00430 -84.82374 37038 ft 506 kts 172°
2026-04-22 20:20 38.96956 -84.81678 37038 ft 506 kts 172°
2026-04-22 20:21 38.90015 -84.80291 37294 ft 501 kts 172°
2026-04-22 20:21 38.86586 -84.79605 37530 ft 495 kts 172°
2026-04-22 20:21 38.83258 -84.78940 37839 ft 488 kts 172°
2026-04-22 20:21 38.79926 -84.78275 38157 ft 480 kts 172°
2026-04-22 20:22 38.76657 -84.77624 38471 ft 472 kts 172°
2026-04-22 20:22 38.73443 -84.76984 38782 ft 463 kts 172°
2026-04-22 20:22 38.70289 -84.76356 39021 ft 455 kts 172°
2026-04-22 20:23 38.64082 -84.75125 39079 ft 449 kts 172°
2026-04-22 20:23 38.57986 -84.73918 39088 ft 443 kts 172°
2026-04-22 20:24 38.51932 -84.72721 39086 ft 437 kts 172°
2026-04-22 20:24 38.45953 -84.71744 39091 ft 429 kts 179°
2026-04-22 20:25 38.40049 -84.71745 39098 ft 420 kts 184°
2026-04-22 20:25 38.34272 -84.72053 39103 ft 411 kts 185°
2026-04-22 20:26 38.28601 -84.72339 38739 ft 415 kts 184°
2026-04-22 20:26 38.25707 -84.72485 38002 ft 431 kts 184°